Retour au catalogue

COSMOS 1348

ActifMilitaireHEO
NORAD 13124·PAYLOAD·🇷🇺 Russia

Lancé Apr 7, 1982 depuis Plesetsk Cosmodrome

Loading…

Prochains Passages (prochaines 24 heures)

TLE

FraisSource: Space-Track

Époque: Sep 14, 2026, 09:33 UTC

1 13124U 82029A   26257.39831190  .00000032  00000-0  00000-0 0  9993
2 13124  71.7701 142.3580 4801344 329.6658 246.4929  2.00362270325178

Suivez COSMOS 1348 en temps réel avec AllMySat

Download on the App Store